This is the latest recevied weather packets stored in our database for station/object K6GMW. If no packets are shown the sender has not sent any weather packets the latest 1 day(s).
| Time | Temp. | Humidity | Pressure | Rain* | Wind** | Luminosity | Snow |
|---|---|---|---|---|---|---|---|
| 1778036322 | 25° C | 82% | 1007.5 hPa | 0 mm | - | 0 W/m² | - |
| 1778036018 | 25° C | 82% | 1007.6 hPa | 0 mm | - | 0 W/m² | - |
| 1778035716 | 25° C | 82% | 1007.4 hPa | 0 mm | - | 0 W/m² | - |
| 1778035412 | 25.56° C | 81% | 1007.6 hPa | 0 mm | - | 0 W/m² | - |
| 1778035109 | 25.56° C | 81% | 1007.4 hPa | 0 mm | - | 0 W/m² | - |
| 1778034502 | 25° C | 81% | 1006.9 hPa | 0 mm | - | 0 W/m² | - |
| 1778034200 | 25° C | 81% | 1006.8 hPa | 0 mm | - | 0 W/m² | - |
| 1778033898 | 25° C | 81% | 1007.1 hPa | 0 mm | - | 0 W/m² | - |
| 1778033594 | 25.56° C | 81% | 1007.2 hPa | 0 mm | - | 0 W/m² | - |
| 1778033291 | 25.56° C | 79% | 1007.6 hPa | 0 mm | - | 0 W/m² | - |
| 1778032687 | 26.11° C | 78% | 1007.6 hPa | 0 mm | - | 0 W/m² | - |
| 1778032384 | 26.11° C | 78% | 1007.4 hPa | 0 mm | - | 0 W/m² | - |
| 1778032080 | 26.11° C | 78% | 1007.3 hPa | 0 mm | - | 0 W/m² | - |
| 1778031777 | 25.56° C | 79% | 1007.3 hPa | 0 mm | - | 0 W/m² | - |
| 1778031474 | 25.56° C | 79% | 1007 hPa | 0 mm | - | 0 W/m² | - |
| 1778030868 | 26.11° C | 77% | 1007.1 hPa | 0 mm | - | 0 W/m² | - |
| 1778030565 | 26.11° C | 77% | 1007.1 hPa | 0 mm | - | 0 W/m² | - |
| 1778029958 | 26.67° C | 76% | 1007 hPa | 0 mm | - | 1 W/m² | - |
| 1778029657 | 26.67° C | 75% | 1007.1 hPa | 0 mm | - | 1 W/m² | - |
| 1778029051 | 26.67° C | 74% | 1007 hPa | 0 mm | - | 5 W/m² | - |
| 1778028747 | 27.22° C | 74% | 1006.8 hPa | 0 mm | - | 7 W/m² | - |
| 1778028443 | 27.22° C | 74% | 1006.6 hPa | 0 mm | - | 11 W/m² | - |
| 1778027837 | 27.22° C | 72% | 1006.4 hPa | 0 mm | - | 24 W/m² | - |
| 1778027534 | 27.22° C | 72% | 1006.2 hPa | 0 mm | - | 32 W/m² | - |
| 1778026926 | 27.78° C | 71% | 1006.1 hPa | 0 mm | - | 33 W/m² | - |
* Rain latest hour (hover to see other rain measurements)
** Current wind speed in m/s (hover to see current wind gust speed)